Location: Gallinara
(44.0333°N, 8.2333°E)
Time: 17:32:23
(UTC+00:00)

Cosmos 2233 Rocket - Pass Details

Date: 25 September 2020
Orbit: 953 x 991 km, 82.9° (Epoch: 29 October)

Event Time Altitude Azimuth Distance (km) Brightness Sun altitude
Rises 04:29:41 0° 351° (N) 3,640 7.0 -9.5°
Reaches altitude 10° 04:32:11 10° 351° (N) 2,690 6.3 -9.1°
Maximum altitude 04:38:21 86° 264° (W) 963 4.0 -8.0°
Drops below altitude 10° 04:44:29 10° 176° (S) 2,680 6.3 -6.9°
Sets 04:46:58 0° 176° (S) 3,626 7.0 -6.4°
